Weather History for YWLM - January, 2014

Change the Weather History Date:

Friday, January 24, 2014

  Actual Average Record
Temperature  
Mean Temperature 75 °F -  
Max Temperature 84 °F - - ()
Min Temperature 66 °F - - ()
Cooling Degree Days 10    
Growing Degree Days 25 (Base 50)    
Moisture  
Dew Point 65 °F    
Average Humidity 73    
Maximum Humidity 94    
Minimum Humidity 35    
Precipitation  
Precipitation 0.31 in - - ()
Sea Level Pressure  
Sea Level Pressure 29.86 in    
Wind  
Wind Speed 8 mph ()    
Max Wind Speed 15 mph    
Max Gust Speed -    
Visibility 6.8 miles    
Events Rain    
T = Trace of Precipitation, MM = Missing Value Source: Averaged Metar Reports

Daily Weather History Graph

Daily Weather History Graph

Search for Another Location

Airport or City:

Trip Planner

Search our weather history database for the weather conditions in past years. The results will help you decide how hot, cold, wet, or windy it might be!

Date:

Astronomy

Jan. 24, 2014 Rise Set
Actual Time 6:08 AM AEDT 8:00 PM AEDT
Civil Twilight 5:40 AM AEDT 8:28 PM AEDT
Nautical Twilight 5:07 AM AEDT 9:01 PM AEDT
Astronomical Twilight 4:32 AM AEDT 9:36 PM AEDT
Moon No Moon Rise 1:12 PM AEDT (1/24)
Length of Visible Light 14h 47m
Length of Day
13h 52m
Waning Gibbous, 52% of the Moon is Illuminated
Jan 24
Waning Gibbous
Jan 24
Last Quarter
Jan 31
New
Feb 7
First Quarter
Feb 15
Full

Hourly Weather History & Observations

Time (AEDT) Temp. Heat Index Dew Point Humidity Pressure Visibility Wind Dir Wind Speed Gust Speed Precip Events Conditions
12:00 AM 70 °F - 67 °F 88% 30.06 in - ENE 5.8 mph - -  
12:00 AM 69.8 °F - 68.0 °F 94% 30.06 in 6.2 mi ENE 5.8 mph - N/A   Scattered Clouds
12:30 AM 69.8 °F - 68.0 °F 94% 30.06 in 6.2 mi East 4.6 mph - N/A   Scattered Clouds
1:00 AM 69.8 °F - 66.2 °F 88% 30.04 in 6.2 mi ENE 5.8 mph - N/A   Scattered Clouds
1:30 AM 68.0 °F - 66.2 °F 94% 30.04 in 6.2 mi ENE 4.6 mph - N/A   Unknown
2:00 AM 68 °F - 66 °F 93% 30.03 in - ENE 4.6 mph - -  
2:00 AM 68.0 °F - 66.2 °F 94% 30.01 in 6.2 mi ENE 4.6 mph - N/A   Unknown
2:30 AM 68.0 °F - 66.2 °F 94% 30.01 in 6.2 mi NE 5.8 mph - N/A   Unknown
3:00 AM 68 °F - 65 °F 89% 29.99 in - NE 8.1 mph - -  
3:00 AM 68.0 °F - 66.2 °F 94% 29.98 in 6.2 mi NE 8.1 mph - N/A   Unknown
3:30 AM 68.0 °F - 66.2 °F 94% 29.98 in 6.2 mi ENE 6.9 mph - N/A   Unknown
4:00 AM 68.0 °F - 66.2 °F 94% 29.98 in 6.2 mi NE 5.8 mph - N/A   Unknown
4:30 AM 68.0 °F - 66.2 °F 94% 29.95 in 6.2 mi ENE 6.9 mph - N/A   Unknown
5:00 AM 67 °F - 65 °F 89% 29.97 in - ENE 5.8 mph - -  
5:00 AM 68.0 °F - 64.4 °F 88% 29.95 in 6.2 mi ENE 5.8 mph - N/A   Unknown
5:30 AM 66.2 °F - 64.4 °F 94% 29.95 in 6.2 mi NE 5.8 mph - N/A   Unknown
6:00 AM 67 °F - 64 °F 88% 29.97 in 19 mi NE 5.8 mph - -   Partly Cloudy
6:00 AM 66.2 °F - 64.4 °F 94% 29.95 in 6.2 mi NE 5.8 mph - N/A   Mostly Cloudy
6:30 AM 66.2 °F - 64.4 °F 94% 29.95 in 6.2 mi ENE 4.6 mph - N/A   Mostly Cloudy
7:00 AM 68.0 °F - 64.4 °F 88% 29.95 in 6.2 mi NE 5.8 mph - N/A   Mostly Cloudy
7:30 AM 69.8 °F - 66.2 °F 88% 29.98 in - North 4.6 mph - N/A   Clear
8:00 AM 72 °F - 65 °F 73% 29.98 in - NNE 6.9 mph - -  
8:00 AM 71.6 °F - 64.4 °F 78% 29.98 in - NNE 6.9 mph - N/A   Clear
8:30 AM 75.2 °F - 64.4 °F 69% 29.95 in 6.2 mi NNE 9.2 mph - N/A   Mostly Cloudy
9:00 AM 76 °F - 63 °F 56% 29.97 in 22 mi NNE 10.4 mph - -   Partly Cloudy
9:00 AM 77.0 °F - 62.6 °F 61% 29.95 in 6.2 mi NNE 10.4 mph - N/A   Mostly Cloudy
9:30 AM 77.0 °F - 62.6 °F 61% 29.95 in 6.2 mi NNE 12.7 mph - N/A   Mostly Cloudy
10:00 AM 78.8 °F - 62.6 °F 57% 29.92 in 6.2 mi North 12.7 mph - N/A   Mostly Cloudy
10:30 AM 78.8 °F - 62.6 °F 57% 29.92 in 6.2 mi NNE 12.7 mph - N/A   Mostly Cloudy
11:00 AM 81 °F - 62 °F 42% 29.91 in - NNE 10.4 mph - -  
11:00 AM 80.6 °F 81.8 °F 62.6 °F 54% 29.89 in 6.2 mi NNE 10.4 mph - N/A   Mostly Cloudy
11:30 AM 82.4 °F 82.9 °F 60.8 °F 48% 29.89 in 6.2 mi North 11.5 mph - N/A   Mostly Cloudy
12:00 PM 84 °F - 61 °F 35% 29.88 in 19 mi NE 10.4 mph - -   Partly Cloudy
12:00 PM 84.2 °F 84.4 °F 60.8 °F 45% 29.86 in 6.2 mi NE 10.4 mph - N/A   Mostly Cloudy
12:30 PM 84.2 °F 84.4 °F 60.8 °F 45% 29.86 in 6.2 mi NE 11.5 mph - N/A   Mostly Cloudy
1:00 PM 84.2 °F 84.4 °F 60.8 °F 45% 29.83 in 6.2 mi NE 11.5 mph - N/A   Mostly Cloudy
1:30 PM 84.2 °F 84.4 °F 60.8 °F 45% 29.80 in 6.2 mi NE 9.2 mph - N/A   Mostly Cloudy
2:00 PM 82 °F - 66 °F 49% 29.81 in - East 13.8 mph - -  
2:00 PM 82.4 °F 84.6 °F 66.2 °F 58% 29.80 in 6.2 mi East 13.8 mph - N/A   Mostly Cloudy
2:30 PM 80.6 °F 82.7 °F 66.2 °F 61% 29.80 in - East 15.0 mph - N/A   Clear
3:00 PM 80 °F - 66 °F 54% 29.79 in - ENE 15.0 mph - -  
3:00 PM 80.6 °F 82.7 °F 66.2 °F 61% 29.77 in - ENE 15.0 mph - N/A   Clear
3:30 PM 78.8 °F - 66.2 °F 65% 29.77 in - ENE 15.0 mph - N/A   Clear
4:00 PM 80.6 °F 82.7 °F 66.2 °F 61% 29.74 in - ENE 13.8 mph - N/A   Clear
4:30 PM 80.6 °F 82.7 °F 66.2 °F 61% 29.74 in 6.2 mi NE 15.0 mph - N/A   Unknown
5:00 PM 80 °F - 65 °F 52% 29.72 in - NE 11.5 mph - -  
5:00 PM 80.6 °F 82.7 °F 66.2 °F 61% 29.71 in 6.2 mi NE 11.5 mph - N/A   Unknown
5:30 PM 78.8 °F - 66.2 °F 65% 29.71 in 6.2 mi NE 13.8 mph - N/A   Unknown
6:00 PM 78 °F - 67 °F 60% 29.71 in - NE 12.7 mph - -  
6:00 PM 78.8 °F - 66.2 °F 65% 29.68 in 6.2 mi NE 12.7 mph - N/A   Unknown
6:30 PM 78.8 °F - 64.4 °F 61% 29.68 in 6.2 mi NE 10.4 mph - N/A   Scattered Clouds
7:00 PM 77.0 °F - 64.4 °F 65% 29.68 in 6.2 mi NE 11.5 mph - N/A   Mostly Cloudy
7:30 PM 73.4 °F - 69.8 °F 88% 29.71 in 6.2 mi NNW 8.1 mph - N/A Rain Rain Showers
8:00 PM 73 °F - 70 °F 88% 29.74 in - North 5.8 mph - -  
8:00 PM 73.4 °F - 69.8 °F 88% 29.71 in 6.2 mi North 5.8 mph - N/A   Scattered Clouds
8:30 PM 73.4 °F - 69.8 °F 88% 29.71 in 6.2 mi North 6.9 mph - N/A   Scattered Clouds
9:00 PM 74 °F - 67 °F 73% 29.74 in - NNW 11.5 mph - -  
9:00 PM 73.4 °F - 68.0 °F 83% 29.74 in 6.2 mi NNW 11.5 mph - N/A   Drizzle
9:30 PM 73.4 °F - 66.2 °F 78% 29.71 in 6.2 mi NW 12.7 mph - N/A   Scattered Clouds
10:00 PM 73.4 °F - 66.2 °F 78% 29.74 in 6.2 mi NW 9.2 mph - N/A Rain Light Rain Showers
10:30 PM 73.4 °F - 66.2 °F 78% 29.71 in 6.2 mi NW 8.1 mph - N/A   Scattered Clouds
11:00 PM 73 °F - 66 °F 73% 29.74 in - NW 10.4 mph - -  
11:00 PM 73.4 °F - 66.2 °F 78% 29.71 in 6.2 mi NW 10.4 mph - N/A   Light Drizzle
11:30 PM 71.6 °F - 68.0 °F 88% 29.71 in 6.2 mi West 10.4 mph - N/A Rain Light Rain